Retour au catalogue

COSMOS 1275 DEB

LostPO
NORAD 17026·DEBRIS·🇷🇺 Russia

Lancé Jun 4, 1981 depuis Plesetsk Cosmodrome

Loading…

Prochains Passages (prochaines 24 heures)

TLE

PériméSource: Space-Track

Époque: Nov 10, 2017, 14:57 UTC

1 17026U 81053KG  17314.62292282  .00000318  00000-0  26343-3 0  9995
2 17026  83.1337   7.6587 0075145 307.7832 205.8717 13.84752606632180

Suivez COSMOS 1275 DEB en temps réel avec AllMySat

Download on the App Store